EW7961 Weather Reports


Display with metric or nautical units.
time (UTC)temp
F
wind
direction
speed
MPH
gust
MPH
rain 1hr
in
rain 24hr
in
rain mn
in
humidity
%
barometer
mb
20260905113521 82 272 2.0 2.0 0.00 0.00 0.00 76 1014.1
20260905112521 82 272 1.0 2.0 0.00 0.00 0.00 76 1014.1
20260905111601 82 281 1.0 2.0 0.00 0.00 0.00 75 1014.0
20260905110522 82 271 1.0 2.0 0.00 0.00 0.00 75 1013.9
20260905105522 82 275 1.0 2.0 0.00 0.00 0.00 74 1013.9
20260905104602 83 275 1.0 2.0 0.00 0.00 0.00 74 1013.9
20260905103522 83 283 0.0 1.0 0.00 0.00 0.00 73 1013.9
20260905102522 83 286 1.0 2.0 0.00 0.00 0.00 73 1014.0
20260905101522 83 275 1.0 2.0 0.00 0.00 0.00 73 1014.0
20260905100522 83 276 1.0 2.0 0.00 0.00 0.00 73 1014.1
20260905095603 83 275 1.0 2.0 0.00 0.00 0.00 72 1014.0
20260905094522 83 278 1.0 2.0 0.00 0.00 0.00 72 1013.9
20260905093522 84 282 1.0 1.0 0.00 0.00 0.00 72 1013.9
20260905092606 84 275 1.0 2.0 0.00 0.00 0.00 71 1014.0
20260905091603 84 275 1.0 1.0 0.00 0.00 0.00 70 1014.0
20260905090540 84 276 2.0 2.0 0.00 0.00 0.00 70 1014.0
20260905085523 85 282 1.0 2.0 0.00 0.00 0.00 69 1013.9
20260905084524 85 283 1.0 2.0 0.00 0.00 0.00 69 1013.9
20260905083524 85 280 2.0 2.0 0.00 0.00 0.00 69 1013.9
20260905081524 85 285 1.0 1.0 0.00 0.00 0.00 69 1014.1
20260905080524 85 283 1.0 2.0 0.00 0.00 0.00 69 1014.1
20260905075524 85 283 1.0 2.0 0.00 0.00 0.00 69 1014.2
20260905074604 85 281 2.0 2.0 0.00 0.00 0.00 68 1014.2
20260905073524 85 279 1.0 2.0 0.00 0.00 0.00 67 1014.3
20260905072605 86 285 1.0 2.0 0.00 0.00 0.00 67 1014.3
20260905071539 86 283 1.0 2.0 0.00 0.00 0.00 67 1014.2
20260905070525 86 276 2.0 2.0 0.00 0.00 0.00 67 1014.3
20260905065524 86 265 1.0 1.0 0.00 0.00 0.00 67 1014.3
20260905064524 86 288 0.0 1.0 0.00 0.00 0.00 66 1014.3
20260905063525 86 283 1.0 2.0 0.00 0.00 0.00 66 1014.2
20260905062606 86 282 1.0 2.0 0.00 0.00 0.00 65 1014.3
20260905061525 86 293 1.0 1.0 0.00 0.00 0.00 65 1014.4
20260905060606 87 292 1.0 1.0 0.00 0.00 0.00 64 1014.4
20260905055526 87 288 1.0 1.0 0.00 0.00 0.00 64 1014.4
20260905054517 87 284 1.0 2.0 0.00 0.00 0.00 64 1014.4
20260905053517 87 285 1.0 2.0 0.00 0.00 0.00 63 1014.4
20260905052517 87 286 1.0 2.0 0.00 0.00 0.00 63 1014.4
20260905051521 87 286 1.0 2.0 0.00 0.00 0.00 63 1014.5
20260905050521 87 290 1.0 2.0 0.00 0.00 0.00 63 1014.4
20260905045558 87 296 1.0 1.0 0.00 0.00 0.00 63 1014.3
20260905044517 87 285 2.0 2.0 0.00 0.00 0.00 63 1014.3
20260905043638 88 286 1.0 2.0 0.00 0.00 0.00 63 1014.3
20260905042521 88 283 2.0 2.0 0.00 0.00 0.00 62 1014.2
20260905041518 88 291 1.0 2.0 0.00 0.00 0.00 62 1014.1
20260905040517 89 290 2.0 3.0 0.00 0.00 0.00 61 1014.1
20260905035518 89 287 2.0 3.0 0.00 0.00 0.00 60 1014.1
20260905034518 89 291 1.0 2.0 0.00 0.00 0.00 59 1014.1
20260905033519 89 298 1.0 3.0 0.00 0.00 0.00 58 1014.1
20260905032518 89 295 1.0 2.0 0.00 0.00 0.00 57 1014.2
20260905031519 89 295 1.0 2.0 0.00 0.00 0.00 57 1014.2
20260905030519 90 292 1.0 2.0 0.00 0.00 0.00 57 1014.2
20260905025519 90 289 1.0 2.0 0.00 0.00 0.00 57 1014.2
20260905024642 90 297 1.0 2.0 0.00 0.00 0.00 57 1014.2
20260905023525 90 289 1.0 2.0 0.00 0.00 0.00 57 1014.1
20260905022519 91 292 2.0 2.0 0.00 0.00 0.00 56 1013.9
20260905021600 91 290 1.0 2.0 0.00 0.00 0.00 55 1013.8
20260905020519 91 288 2.0 2.0 0.00 0.00 0.00 55 1013.7
20260905015517 92 293 2.0 3.0 0.00 0.00 0.00 54 1013.6
20260905014520 92 287 2.0 2.0 0.00 0.00 0.00 52 1013.4
20260905013520 93 290 2.0 2.0 0.00 0.00 0.00 51 1013.3
20260905012517 93 295 2.0 2.0 0.00 0.00 0.00 50 1013.2
20260905011517 93 297 1.0 2.0 0.00 0.00 0.00 49 1013.1
20260905010517 94 302 2.0 2.0 0.00 0.00 0.00 48 1013.0
20260905005520 94 299 1.0 2.0 0.00 0.00 0.00 48 1013.0
20260905004521 94 299 1.0 2.0 0.00 0.00 0.00 47 1013.0
20260905003517 95 302 1.0 2.0 0.00 0.00 0.00 46 1013.0
20260905002558 95 301 1.0 2.0 0.00 0.00 0.00 46 1013.0
20260905001518 96 300 1.0 2.0 0.00 0.00 0.00 45 1012.9
20260905000518 96 299 1.0 3.0 0.00 0.00 0.00 44 1012.9
20260904235518 97 298 1.0 3.0 0.00 0.00 0.00 44 1012.9
20260904234521 97 305 1.0 2.0 0.00 0.00 0.00 43 1012.8
20260904233518 98 300 1.0 3.0 0.00 0.00 0.00 43 1012.7
20260904232638 98 299 1.0 3.0 0.00 0.00 0.00 43 1012.7
20260904231519 99 297 1.0 4.0 0.00 0.00 0.00 42 1012.7
20260904230518 99 300 1.0 2.0 0.00 0.00 0.00 41 1012.6
20260904225519 99 291 2.0 4.0 0.00 0.00 0.00 40 1012.6
20260904224519 100 290 2.0 4.0 0.00 0.00 0.00 40 1012.6
20260904223519 102 302 1.0 4.0 0.00 0.00 0.00 39 1012.7
20260904222519 103 299 1.0 3.0 0.00 0.00 0.00 39 1012.7
20260904221519 104 292 2.0 4.0 0.00 0.00 0.00 37 1012.7
20260904220519 105 293 2.0 4.0 0.00 0.00 0.00 35 1012.8
20260904215519 105 288 2.0 4.0 0.00 0.00 0.00 36 1012.9
20260904214517 104 293 2.0 5.0 0.00 0.00 0.00 36 1013.1
20260904213520 104 283 2.0 4.0 0.00 0.00 0.00 37 1013.2
20260904212600 103 286 2.0 3.0 0.00 0.00 0.00 38 1013.2
20260904210517 101 296 2.0 4.0 0.00 0.00 0.00 39 1013.5
20260904205517 101 274 2.0 4.0 0.00 0.00 0.00 38 1013.6
20260904204521 101 291 3.0 5.0 0.00 0.00 0.00 39 1013.6
20260904203532 101 317 1.0 2.0 0.00 0.00 0.00 39 1013.8
20260904202558 101 290 2.0 3.0 0.00 0.00 0.00 39 1014.0
20260904201638 100 284 2.0 3.0 0.00 0.00 0.00 40 1014.1
20260904200518 100 295 2.0 3.0 0.00 0.00 0.00 41 1014.2
20260904195518 99 284 2.0 3.0 0.00 0.00 0.00 42 1014.4
20260904194518 98 292 1.0 3.0 0.00 0.00 0.00 43 1014.6
20260904193518 99 292 2.0 3.0 0.00 0.00 0.00 43 1014.7
20260904192518 99 290 2.0 3.0 0.00 0.00 0.00 43 1014.8
20260904191524 100 268 3.0 6.0 0.00 0.00 0.00 42 1014.8
20260904190517 100 297 2.0 4.0 0.00 0.00 0.00 42 1014.9
20260904185519 99 288 2.0 3.0 0.00 0.00 0.00 42 1015.0
20260904184519 99 288 1.0 2.0 0.00 0.00 0.00 42 1015.1
20260904183559 98 294 2.0 3.0 0.00 0.00 0.00 44 1015.1
20260904182519 98 299 2.0 5.0 0.00 0.00 0.00 44 1015.2
20260904181519 97 279 2.0 4.0 0.00 0.00 0.00 45 1015.3
20260904180519 97 281 3.0 5.0 0.00 0.00 0.00 45 1015.4
20260904175518 97 287 2.0 4.0 0.00 0.00 0.00 45 1015.5
20260904174518 96 291 2.0 4.0 0.00 0.00 0.00 47 1015.5
20260904173517 96 289 2.0 4.0 0.00 0.00 0.00 47 1015.6
20260904172518 96 288 2.0 4.0 0.00 0.00 0.00 46 1015.7
20260904171518 96 284 2.0 4.0 0.00 0.00 0.00 47 1015.8
20260904170518 95 267 2.0 4.0 0.00 0.00 0.00 48 1015.9
20260904165518 95 294 2.0 3.0 0.00 0.00 0.00 49 1016.0
20260904164600 94 282 2.0 3.0 0.00 0.00 0.00 51 1016.1
20260904163518 94 280 2.0 4.0 0.00 0.00 0.00 52 1016.1
20260904162559 93 305 2.0 4.0 0.00 0.00 0.00 53 1016.1
20260904161559 93 280 2.0 4.0 0.00 0.00 0.00 53 1016.1
20260904160519 92 286 2.0 3.0 0.00 0.00 0.00 54 1016.2
20260904155519 92 276 2.0 3.0 0.00 0.00 0.00 54 1016.2
20260904154519 92 287 2.0 3.0 0.00 0.00 0.00 55 1016.2
20260904153519 91 301 2.0 3.0 0.00 0.00 0.00 55 1016.3
20260904152519 91 285 3.0 5.0 0.00 0.00 0.00 56 1016.2
20260904151519 91 286 2.0 3.0 0.00 0.00 0.00 57 1016.1
20260904150520 90 267 2.0 4.0 0.00 0.00 0.00 58 1016.1
20260904145520 89 277 2.0 4.0 0.00 0.00 0.00 59 1016.0
20260904144520 89 284 2.0 3.0 0.00 0.00 0.00 61 1016.0
20260904143520 88 285 2.0 3.0 0.00 0.00 0.00 62 1016.0
20260904142520 87 291 2.0 3.0 0.00 0.00 0.00 63 1016.0
20260904141537 87 295 2.0 3.0 0.00 0.00 0.00 64 1015.9
20260904140537 86 282 2.0 2.0 0.00 0.00 0.00 66 1016.0
20260904135522 85 280 2.0 2.0 0.00 0.00 0.00 66 1016.0
20260904134520 85 282 2.0 2.0 0.00 0.00 0.00 67 1016.1
20260904133602 84 283 2.0 2.0 0.00 0.00 0.00 68 1016.1
20260904132521 84 277 1.0 2.0 0.00 0.00 0.00 69 1016.1
20260904131521 84 267 2.0 3.0 0.00 0.00 0.00 70 1016.0
20260904130521 84 278 2.0 2.0 0.00 0.00 0.00 70 1016.1
20260904125521 84 271 2.0 2.0 0.00 0.00 0.00 71 1016.1
20260904124603 83 269 2.0 2.0 0.00 0.00 0.00 72 1016.1
20260904123521 81 274 2.0 2.0 0.00 0.00 0.00 76 1016.0
20260904122522 80 294 1.0 2.0 0.00 0.00 0.00 78 1016.0
20260904121522 80 264 2.0 2.0 0.00 0.00 0.00 77 1015.9
20260904120522 80 271 1.0 2.0 0.00 0.00 0.00 78 1015.8
20260904115522 80 274 1.0 2.0 0.00 0.00 0.00 77 1015.8